Wind_Speed
28 27 26 30 30 23 15 10 9 9 7 6 4 2 2 2 2 3 4 4 3 3 3 3 3 3 3 4 4 4 4 4 4 4 3 3 2 1 1 1 1 1
23 25 28 33 30 21 14 10 8 8 6 4 3 1 1 2 3 4 5 6 6 6 5 4 4 3 2 2 1 0 0 0 1 1 1 2 2 3 4 4 4 4
19 20 22 26 24 18 14 11 9 8 6 5 4 3 3 4 5 6 7 9 10 10 10 10 9 9 8 8 7 6 5 5 5 5 5 5 6 6 7 7 7 7
18 17 15 16 18 18 16 14 13 11 9 7 6 5 6 7 8 9 10 11 12 13 13 13 12 12 11 10 9 8 8 7 7 6 6 6 6 6 6 6 6 6
16 17 14 14 17 18 17 16 16 14 12 10 8 8 8 9 10 11 11 12 13 13 13 12 12 11 10 9 8 8 7 7 6 6 5 5 4 4 4 3 3 3
16 16 14 17 20 20 17 16 17 16 14 12 11 10 10 10 10 11 11 11 11 11 11 10 10 10 9 8 6 6 6 5 4 3 3 3 3 4 4 4 4 4
14 15 15 19 22 21 19 18 17 17 16 15 14 12 12 12 11 11 11 10 10 9 8 8 7 7 6 5 4 4 4 4 3 2 1 1 2 3 5 6 7 7
12 11 14 19 22 22 20 19 17 18 19 18 16 15 14 14 13 13 12 11 10 9 8 7 7 7 6 4 3 3 4 4 4 4 4 4 4 5 6 6 7 8
11 9 11 16 20 22 21 19 17 20 23 21 18 16 16 15 15 14 13 12 12 11 11 10 9 8 7 6 5 5 5 6 7 8 8 8 8 8 8 8 8 9
9 9 11 15 18 20 22 19 17 21 24 23 19 17 18 18 16 16 16 15 14 14 14 13 13 12 11 9 9 8 8 9 10 10 11 12 12 12 11 11 10 11
8 9 11 15 18 20 21 21 19 21 25 26 22 19 20 19 17 17 19 18 17 17 17 17 16 16 15 13 12 11 11 11 12 13 14 14 15 15 15 14 14 14
11 11 11 15 18 21 22 23 22 22 25 27 26 22 21 21 20 20 21 19 19 19 19 19 19 17 16 14 13 13 13 14 14 15 16 17 18 18 18 18 17 18
14 14 14 15 18 21 24 25 24 25 27 29 29 26 23 24 24 24 23 22 22 22 22 21 20 19 17 15 14 14 15 17 18 19 19 20 21 22 22 22 21 21
16 17 17 17 17 20 25 27 28 28 29 30 31 28 26 27 28 27 27 26 26 25 24 24 23 22 21 19 18 19 20 20 20 20 20 19 21 23 25 25 25 24
16 17 18 19 18 19 24 27 29 30 30 31 31 29 29 30 31 31 31 31 31 29 29 29 28 27 26 25 24 25 26 25 21 19 18 19 20 23 25 27 28 27
16 17 18 20 20 20 22 26 29 31 32 32 33 33 32 32 33 34 33 33 34 33 35 36 33 30 29 26 25 25 23 22 21 19 19 20 20 21 23 25 26 27
16 16 17 19 21 21 22 25 28 30 33 34 35 35 35 33 34 35 33 33 34 34 36 34 28 24 23 20 20 21 20 20 21 20 19 20 20 19 20 22 23 24
18 17 17 18 20 21 23 24 26 28 31 32 33 35 36 33 32 32 29 30 32 30 28 25 19 17 18 16 17 20 21 21 20 18 18 18 19 20 20 21 22 22
20 19 18 19 21 22 23 24 25 25 27 27 29 32 30 22 20 23 22 23 25 24 22 20 18 17 18 17 19 21 21 19 18 17 18 19 19 21 21 22 23 23
21 20 20 21 22 23 24 25 25 25 26 25 26 28 24 16 15 19 19 18 20 20 19 19 18 18 19 19 20 20 19 19 19 19 20 21 22 22 22 23 24 25
22 22 23 24 24 24 25 25 25 25 26 26 25 25 22 17 16 18 18 18 18 18 18 18 18 19 20 21 21 20 20 20 21 21 22 23 23 24 24 25 26 27
24 25 26 26 26 26 25 25 24 25 25 25 25 23 20 18 17 17 19 19 18 18 18 18 19 20 21 21 21 21 22 22 23 23 24 24 25 25 26 27 28 29
27 28 28 28 27 26 25 25 24 24 24 24 23 22 21 20 19 18 19 20 20 20 19 19 20 20 20 21 22 22 23 24 25 25 26 26 27 27 28 28 28 29
29 30 29 27 26 26 25 24 23 23 23 23 23 22 22 21 20 20 20 21 21 21 21 20 20 20 20 21 22 22 23 24 24 25 26 27 27 28 28 28 28 28
29 29 28 26 25 25 25 24 24 23 23 23 23 23 23 23 22 22 22 22 22 22 22 21 21 21 21 21 21 22 23 23 24 25 26 26 27 27 28 28 28 29
27 28 30 29 27 27 27 27 26 26 26 26 26 26 26 25 26 26 25 25 24 23 22 22 22 22 22 21 22 22 23 23 24 25 27 27 28 28 28 29 29 29
Wind_Direction
264 260 255 258 269 269 249 248 269 275 281 289 296 300 267 232 199 175 156 152 157 181 206 221 237 246 255 260 263 266 271 273 274 277 276 279 279 264 247 226 225 225
280 276 261 256 266 271 254 245 251 251 253 258 254 232 172 156 150 148 141 137 135 136 139 139 140 141 144 148 141 127 73 60 85 95 102 108 110 109 106 108 111 114
282 286 274 259 257 258 250 239 231 228 222 213 201 161 140 134 131 132 130 128 125 123 123 122 121 118 114 109 104 98 93 92 92 93 96 100 103 105 105 104 106 109
275 275 268 250 241 242 238 226 216 208 198 191 179 154 140 132 129 126 125 125 123 122 123 122 120 119 116 113 111 106 99 94 89 86 87 87 88 92 95 97 101 103
274 270 253 226 226 233 231 226 221 212 199 186 174 161 149 139 133 129 127 127 126 126 127 127 125 123 122 120 117 113 107 101 95 87 79 72 65 63 65 67 69 73
275 273 250 221 222 229 228 228 229 225 212 194 180 172 163 153 146 139 136 134 133 134 134 134 134 132 130 129 126 125 122 118 114 102 83 59 29 9 0 357 354 351
279 273 251 225 220 224 226 227 229 228 219 203 192 184 178 173 166 159 153 150 149 149 146 146 148 147 145 143 146 152 156 158 163 169 186 256 312 320 320 322 323 323
286 273 248 229 223 225 229 230 229 229 223 215 209 201 195 190 184 179 175 171 171 172 172 173 173 174 178 186 194 202 210 217 225 232 237 242 254 268 280 290 297 300
284 268 245 235 232 233 237 236 231 228 226 226 225 218 210 206 200 195 193 192 190 190 190 191 191 192 199 211 224 237 246 252 256 257 256 254 254 256 259 265 274 279
273 256 242 240 240 241 242 241 232 227 229 232 239 237 226 218 213 209 207 205 202 199 198 198 199 201 206 214 223 233 242 252 259 263 264 263 262 261 260 262 268 273
263 256 245 241 242 242 242 241 235 231 234 237 243 251 241 228 224 224 220 215 211 207 205 206 208 212 218 223 230 237 242 246 250 254 257 259 260 260 260 263 268 272
256 257 250 241 238 238 238 238 234 233 237 239 243 252 248 235 231 234 233 228 223 221 219 218 219 221 226 234 246 254 258 257 255 256 256 257 260 261 263 266 269 272
252 249 248 243 237 234 234 235 233 231 234 238 242 247 244 236 236 240 241 239 236 234 233 233 233 232 233 241 251 258 263 264 262 259 258 260 262 264 267 269 270 271
247 243 243 244 239 232 231 233 234 234 235 238 243 246 240 235 239 243 244 241 239 239 241 243 243 239 235 237 246 257 265 266 262 260 260 261 263 263 264 266 266 266
242 240 239 240 238 231 230 232 234 236 238 243 247 249 245 240 240 244 245 244 243 243 245 245 242 239 238 239 248 260 264 259 255 258 262 265 266 264 262 262 263 263
238 237 237 238 238 234 232 234 236 238 240 244 248 252 252 247 243 243 245 247 247 245 245 247 249 251 252 249 251 257 259 252 251 259 265 267 270 270 266 265 266 266
239 238 237 238 239 240 238 238 239 240 241 244 248 251 252 249 244 243 245 250 251 247 247 255 260 260 257 250 246 250 253 252 254 260 264 266 269 272 271 269 270 270
242 241 238 236 237 241 243 242 241 241 242 244 246 248 249 248 246 248 249 249 249 248 254 264 266 257 252 250 248 250 253 254 255 257 260 263 266 268 268 268 269 271
243 242 238 234 234 236 239 240 241 242 243 245 247 250 254 252 242 241 243 240 240 245 251 256 256 252 253 254 252 251 252 254 257 258 260 262 264 266 268 269 271 273
243 243 239 233 231 234 237 238 240 242 244 246 248 253 259 257 234 229 232 231 233 239 243 245 248 251 253 253 252 252 254 258 261 263 264 267 269 271 273 274 276 277
239 238 236 234 233 234 236 238 238 240 242 244 245 247 250 249 236 230 232 234 235 236 238 241 244 247 250 253 255 257 260 263 265 266 268 270 271 274 275 276 277 279
235 233 231 230 231 232 235 237 237 238 239 241 242 243 245 244 238 232 234 238 241 242 242 242 244 248 252 256 260 264 266 267 269 270 272 273 274 275 277 278 278 279
235 230 227 227 229 231 232 235 236 237 239 241 243 244 245 245 242 238 236 238 240 243 244 245 248 251 254 257 260 263 265 267 270 271 273 274 275 277 278 278 279 278
234 230 227 227 228 229 230 232 234 236 238 240 242 244 245 246 245 242 240 240 240 241 243 246 249 251 254 257 259 262 265 268 270 272 274 275 276 276 277 277 277 277
234 232 231 230 229 229 229 231 232 233 235 238 240 242 243 244 244 243 242 242 242 242 243 245 248 251 255 259 262 266 270 273 276 278 279 280 280 280 279 278 278 278
243 236 233 233 234 234 234 233 232 231 232 235 238 241 242 242 243 244 245 246 247 248 249 251 253 256 260 263 267 272 276 280 283 285 286 286 286 285 284 283 282 282
Height
3133 3133 3134 3133 3133 3135 3135 3135 3135 3135 3135 3134 3134 3133 3133 3132 3132 3131 3131 3131 3132 3133 3133 3134 3134 3135 3135 3136 3136 3137 3137 3137 3138 3138 3138 3139 3139 3140 3140 3140 3141 3141
3130 3130 3130 3130 3132 3134 3135 3135 3135 3135 3135 3134 3134 3133 3133 3132 3132 3132 3132 3132 3132 3133 3134 3135 3135 3136 3136 3137 3137 3138 3138 3138 3139 3139 3139 3139 3140 3140 3141 3141 3141 3141
3127 3126 3126 3127 3130 3132 3133 3133 3134 3134 3135 3134 3134 3133 3133 3133 3133 3133 3133 3133 3133 3134 3135 3135 3136 3136 3137 3138 3138 3139 3139 3140 3140 3140 3140 3141 3141 3141 3142 3142 3142 3142
3124 3124 3124 3125 3127 3130 3130 3131 3132 3133 3134 3134 3134 3133 3133 3133 3133 3133 3133 3133 3134 3135 3135 3136 3137 3137 3138 3139 3139 3140 3141 3141 3142 3142 3142 3142 3143 3143 3143 3143 3143 3143
3122 3122 3122 3123 3126 3127 3128 3129 3131 3132 3133 3134 3133 3133 3133 3133 3133 3133 3134 3134 3134 3135 3136 3137 3137 3138 3139 3139 3140 3141 3141 3142 3142 3143 3143 3143 3144 3144 3144 3144 3144 3144
3120 3120 3120 3122 3124 3125 3127 3129 3130 3131 3132 3133 3133 3133 3133 3134 3134 3134 3134 3134 3135 3135 3136 3137 3138 3138 3139 3140 3140 3141 3141 3142 3142 3143 3143 3143 3144 3144 3144 3145 3145 3145
3119 3119 3119 3120 3121 3123 3125 3127 3128 3130 3131 3132 3132 3133 3133 3134 3134 3134 3134 3134 3135 3136 3137 3137 3138 3138 3139 3140 3140 3141 3141 3142 3142 3142 3142 3143 3143 3143 3144 3144 3144 3144
3117 3117 3117 3118 3120 3122 3123 3125 3127 3129 3130 3131 3132 3132 3132 3133 3133 3133 3134 3134 3135 3136 3136 3137 3137 3138 3138 3139 3140 3140 3141 3141 3141 3141 3141 3141 3142 3142 3142 3143 3143 3143
3115 3115 3116 3117 3119 3120 3122 3124 3126 3128 3129 3130 3131 3131 3132 3132 3133 3133 3133 3134 3134 3135 3135 3136 3136 3137 3137 3138 3138 3139 3140 3140 3140 3140 3140 3140 3140 3141 3141 3141 3141 3141
3114 3114 3114 3116 3117 3119 3120 3122 3125 3126 3127 3129 3130 3131 3131 3132 3132 3133 3133 3133 3133 3133 3134 3134 3134 3135 3135 3135 3136 3136 3137 3138 3138 3139 3139 3139 3139 3139 3139 3139 3139 3139
3113 3113 3113 3114 3116 3117 3119 3121 3123 3124 3126 3127 3128 3129 3130 3131 3132 3132 3132 3131 3131 3132 3132 3132 3133 3133 3133 3134 3134 3134 3135 3135 3136 3136 3136 3137 3137 3137 3137 3137 3137 3137
3112 3112 3112 3113 3114 3116 3117 3119 3121 3123 3124 3125 3126 3127 3129 3130 3130 3130 3131 3131 3130 3130 3131 3131 3131 3132 3132 3133 3133 3134 3134 3134 3134 3134 3134 3134 3134 3135 3135 3135 3135 3135
3111 3111 3111 3111 3112 3114 3116 3117 3119 3120 3120 3121 3123 3124 3126 3127 3127 3128 3129 3129 3129 3129 3129 3130 3130 3130 3131 3131 3132 3132 3133 3133 3133 3132 3132 3132 3132 3132 3133 3133 3133 3133
3109 3109 3109 3109 3110 3111 3113 3115 3116 3117 3118 3119 3120 3121 3123 3123 3124 3125 3125 3126 3126 3126 3127 3127 3127 3127 3128 3128 3129 3130 3130 3130 3130 3130 3130 3130 3129 3130 3130 3130 3130 3130
3106 3106 3107 3107 3108 3109 3110 3111 3112 3114 3116 3117 3117 3119 3120 3120 3121 3121 3122 3122 3123 3124 3123 3123 3123 3124 3124 3124 3125 3126 3127 3127 3127 3128 3127 3127 3127 3127 3127 3127 3127 3127
3104 3104 3105 3105 3105 3106 3107 3108 3109 3112 3113 3114 3114 3115 3115 3117 3117 3117 3118 3118 3119 3120 3119 3117 3119 3121 3122 3123 3124 3123 3123 3124 3124 3125 3124 3124 3125 3124 3124 3125 3125 3125
3102 3102 3103 3103 3103 3104 3104 3105 3106 3108 3109 3110 3111 3110 3110 3112 3112 3112 3114 3115 3115 3115 3115 3115 3117 3119 3119 3120 3120 3120 3121 3121 3122 3122 3121 3122 3122 3122 3122 3123 3123 3123
3100 3101 3101 3101 3101 3102 3102 3103 3104 3104 3105 3106 3106 3105 3105 3106 3107 3109 3111 3111 3111 3112 3113 3113 3114 3115 3115 3115 3116 3117 3118 3118 3118 3118 3118 3119 3119 3120 3120 3120 3120 3120
3098 3099 3099 3099 3099 3100 3100 3100 3101 3101 3101 3102 3102 3101 3101 3104 3106 3107 3108 3108 3107 3109 3110 3111 3111 3112 3112 3113 3114 3115 3115 3115 3115 3115 3116 3116 3116 3117 3117 3117 3117 3117
3096 3096 3097 3097 3097 3097 3097 3098 3099 3099 3099 3099 3099 3098 3099 3102 3104 3104 3104 3104 3105 3106 3107 3108 3109 3109 3110 3111 3111 3111 3111 3112 3112 3112 3113 3113 3113 3113 3114 3114 3114 3114
3094 3094 3094 3094 3094 3095 3095 3095 3096 3096 3096 3097 3097 3096 3097 3099 3100 3101 3101 3102 3103 3104 3105 3105 3106 3106 3107 3108 3108 3108 3108 3108 3109 3109 3110 3110 3110 3110 3111 3111 3111 3111
3090 3091 3091 3091 3092 3092 3092 3092 3093 3093 3093 3094 3094 3094 3094 3096 3097 3098 3099 3100 3100 3101 3102 3103 3103 3104 3104 3105 3105 3105 3105 3106 3106 3106 3107 3107 3107 3108 3108 3107 3107 3107
3086 3087 3087 3088 3088 3089 3089 3089 3090 3090 3090 3091 3091 3091 3092 3093 3094 3096 3097 3098 3099 3099 3100 3101 3101 3101 3102 3102 3103 3103 3103 3103 3103 3104 3104 3104 3105 3105 3104 3104 3104 3104
3082 3083 3083 3084 3085 3086 3086 3087 3087 3087 3087 3088 3088 3089 3090 3090 3091 3092 3094 3095 3096 3097 3097 3098 3098 3099 3099 3100 3100 3100 3101 3101 3101 3101 3102 3102 3102 3102 3101 3101 3101 3100
3078 3079 3080 3081 3082 3083 3083 3084 3084 3084 3085 3086 3086 3087 3088 3088 3089 3089 3090 3091 3092 3093 3094 3095 3096 3096 3096 3097 3097 3098 3098 3098 3098 3098 3098 3098 3098 3098 3098 3097 3097 3097
3076 3076 3077 3078 3079 3080 3081 3081 3081 3081 3082 3083 3084 3085 3085 3086 3086 3087 3087 3088 3089 3090 3091 3092 3093 3093 3094 3094 3094 3094 3094 3094 3095 3094 3094 3094 3094 3094 3094 3093 3093 3093